This demonstration page uses our WeatherBlox Daily Observations layout. Learn more.

Left ArrowRight Arrow

39.01783, -85.05884

Hourly Observations for December 5, 2022

Temp ( °F °C ) Dew Point ( °F °C ) Humidity (%) Winds ( mph kmh ) Pressure ( in mb ) Visibility ( mi km ) Precip ( " mm )
12:52 am 00:52 Clear 27 -2.8 16 -8.9 63 63 SSW 5 7 30.13 1020 10 16 0.00 0.00
1:52 am 01:52 Clear 26 -3.3 19 -7.2 74 74 S 6 9 30.11 1020 10 16 0.00 0.00
2:52 am 02:52 Clear 28 -2.2 21 -6.1 75 75 S 5 7 30.11 1020 10 16 0.00 0.00
3:52 am 03:52 Partly Cloudy 28 -2.2 23 -5 81 81 SSE 5 7 30.09 1019 10 16 0.00 0.00
4:52 am 04:52 Mostly Cloudy 28 -2.2 24 -4.4 85 85 SSE 6 9 30.07 1018 10 16 0.00 0.00
5:52 am 05:52 Mostly Cloudy 26 -3.3 23 -5 88 88 SSE 5 7 30.08 1019 10 16 0.00 0.00
6:52 am 06:52 Mostly Cloudy 26 -3.3 22 -5.6 84 84 SSE 7 11 30.08 1019 10 16 0.00 0.00
7:52 am 07:52 Sunny 26 -3.3 23 -5 88 88 SSE 7 11 30.06 1018 9 14 0.00 0.00
8:52 am 08:52 Mostly Cloudy 29 -1.7 27 -2.8 92 92 S 7 11 30.06 1018 10 16 0.00 0.00
9:52 am 09:52 Mostly Cloudy 34 1.1 29 -1.7 82 82 SSE 9 15 30.06 1018 10 16 0.00 0.00
10:52 am 10:52 Mostly Cloudy 39 3.9 30 -1.1 70 70 S 8 13 30.07 1018 10 16 0.00 0.00
11:52 am 11:52 Cloudy 43 6.1 30 -1.1 60 60 SSE 9 15 30.02 1017 10 16 0.00 0.00
12:52 pm 12:52 Mostly Cloudy 46 7.8 27 -2.8 47 47 S 7 11 29.98 1015 10 16 0.00 0.00
1:52 pm 13:52 Cloudy 48 8.9 26 -3.3 42 42 S 8 13 29.96 1015 10 16 0.00 0.00
2:52 pm 14:52 Cloudy 47 8.3 26 -3.3 44 44 S 10 17 29.96 1015 10 16 0.00 0.00
3:52 pm 15:52 Cloudy 47 8.3 27 -2.8 45 45 S 8 13 29.96 1014 10 16 0.00 0.00
4:52 pm 16:52 Cloudy 46 7.8 32 0 58 58 S 14 22 29.95 1014 10 16 0.00 0.00
5:52 pm 17:52 Cloudy 44 6.7 36 2.2 73 73 SSE 15 24 29.96 1014 8 13 0.00 0.00
6:30 pm 18:30 Cloudy with Mist and Fog 42 5.6 38 3.3 85 85 SSE 10 17 29.98 1015 5 8 0.00 0.00
6:52 pm 18:52 Cloudy with Mist and Fog 41 5 40 4.4 96 96 SSE 10 17 29.96 1014 6 10 0.01 0.13
7:07 pm 19:07 Cloudy 41 5 40 4.4 96 96 SSE 10 17 29.97 1015 9 14 0.00 0.00
7:52 pm 19:52 Cloudy 41 5 40 4.4 96 96 SSE 8 13 29.95 1014 7 11 0.00 0.00
8:52 pm 20:52 Cloudy with Mist and Fog 42 5.6 42 5.6 100 100 SSE 9 15 29.95 1014 6 10 0.00 0.00
9:24 pm 21:24 Cloudy with Mist and Fog 43 6.1 42 5.6 97 97 S 9 15 29.95 1014 6 10 0.00 0.00
9:52 pm 21:52 Cloudy with Mist and Fog 43 6.1 43 6.1 100 100 S 8 13 29.95 1014 6 10 0.00 0.00
10:52 pm 22:52 Cloudy with Mist and Fog 44 6.7 43 6.1 96 96 S 7 11 29.95 1014 4 6 0.00 0.00
11:24 pm 23:24 Cloudy with Mist and Fog 44 6.7 44 6.7 100 100 SSE 7 11 29.96 1015 1 2 0.00 0.00
11:52 pm 23:52 Cloudy with Mist and Fog 44 6.7 44 6.7 100 100 SSE 7 11 29.95 1014 1 2 0.00 0.00

Powered by AerisWeather